{"data":{"norad_id":59709,"intl_designator":"2024-088B","name":"STARLINK-11088 [DTC]","alt_names":[],"object_type":"PAYLOAD","status":"ACTIVE","operator":null,"country":"US","launch_date":"2024-05-10","launch_site_code":"AFWTR","launch_vehicle":null,"mission":null,"orbit_class":"UNKNOWN","rcs_meters":null,"size_class":null,"mass_kg":null,"dimensions":null,"purposes":["comms"],"wikipedia_slug":null,"has_3d_model":false,"image_url":null,"decayed_at":null,"tle_current":{"epoch":"2026-09-21T21:22:10.662816Z","epoch_age_seconds":51138,"freshness":"FRESH","line1":"1 59709U 24088B   26264.89040119 -.00000149  00000+0  36232-5 0  9999","line2":"2 59709  53.1573  79.3790 0000811  67.1707 292.9397 15.69707808137080","mean_motion":15.69707808,"eccentricity":8.11e-5,"inclination_deg":53.1573,"raan_deg":79.379,"arg_perigee_deg":67.1707,"mean_anomaly_deg":292.9397,"bstar":3.6232e-6,"rev_number":13708,"period_min":91.736818321286,"perigee_km":359.18658183315,"apogee_km":360.2794643509,"semimajor_km":6737.870023092,"source":"CELESTRAK","updated_at":"2026-09-22T09:00:49.057317Z"}}}